Location: La Oliva
(42.2466°N, 2.9955°E)
Time: 10:05:17
(UTC+00:00)

Cosmos 44 Rocket - Pass Details

Date: 22 April 2021
Orbit: 636 x 754 km, 65.1° (Epoch: 10 May)

Event Time Altitude Azimuth Distance (km) Brightness Sun altitude
Rises 20:09:53 0° 189° (S) 3,078 6.4 -16.1°
Enters shadow 20:10:00 - 188° (S) 3,036 6.3 -16.2°
Exits shadow 20:12:07 - 182° (S) 2,252 5.6 -16.5°
Reaches altitude 10° 20:12:19 10° 181° (S) 2,183 5.5 -16.5°
Maximum altitude 20:16:54 37° 114° (ESE) 1,117 3.8 -17.2°
Drops below altitude 10° 20:21:38 10° 48° (NE) 2,257 5.8 -17.9°
Sets 20:24:11 0° 40° (NE) 3,196 6.7 -18.3°
